Location: Waco, TX
(31.5480°N, 97.1670°W)
Time: 16:01:26
(UTC-06:00)

ISS - Pass Details

Date: 25 January 2021
Orbit: 417 x 422 km, 51.6° (Epoch: 07 March)

Event Time Altitude Azimuth Distance (km) Brightness Sun altitude
Rises 23:35:42 0° 317° (NW) 2,372 - -70.4°
Reaches altitude 10° 23:37:49 10° 320° (NW) 1,505 - -70.7°
Maximum altitude 23:41:11 71° 44° (NE) 448 - -71.3°
Drops below altitude 10° 23:44:32 10° 129° (SE) 1,496 - -71.8°
Sets 23:46:38 0° 132° (SE) 2,356 - -72.2°
